Location: Newark
(5.8900°S, 42.6378°W)
Time: 23:52:01
(UTC+00:00)

Vanguard 1 Rocket - Pass Details

Date: 26 October 2019
Orbit: 651 x 4226 km, 34.3° (Epoch: 19 November)

Event Time Altitude Azimuth Distance (km) Brightness Sun altitude
Rises 00:35:45 0° 260° (W) 7,091 12.4 -55.3°
Reaches altitude 10° 00:44:17 10° 240° (WSW) 5,182 11.6 -57.1°
Maximum altitude 00:51:15 15° 209° (SSW) 3,937 10.9 -58.5°
Enters shadow 00:54:36 13° 189° (S) 3,671 10.6 -59.2°
Drops below altitude 10° 00:56:26 10° 177° (S) 3,671 - -59.6°
Sets 01:00:41 0° 152° (SSE) 4,100 - -60.4°
